DLH912 KDEN-KLAS

Flight info

Callsign DLH912
Flight time N/A
Altitude 36000
Route CONNR8 WERNR ZAKRY CHESZ GGAPP CHOWW4
Aircraft A320/M-SDE3FGHIRWY/LB1

Departure

Time 2026-05-05 03:05
Airport Denver International Airport (KDEN)

Arrival

Time N/A
Airport Harry Reid International Airport (KLAS)
Time Latitude Longitude Altitude Speed Heading
2026-05-05 02:50 39.85930 -104.66960 5387 ft 0 kts 181°
2026-05-05 02:55 39.85941 -104.66959 5384 ft 2 kts 181°
2026-05-05 02:55 39.85959 -104.66959 5384 ft 3 kts 165°
2026-05-05 02:55 39.85977 -104.66961 5385 ft 3 kts 200°
2026-05-05 02:55 39.85992 -104.66949 5384 ft 3 kts 237°
2026-05-05 02:56 39.85999 -104.66932 5386 ft 0 kts 267°
2026-05-05 02:57 39.85999 -104.66935 5386 ft 1 kts 267°
2026-05-05 02:57 39.85998 -104.66942 5386 ft 1 kts 267°
2026-05-05 02:57 39.85998 -104.66953 5386 ft 2 kts 268°
2026-05-05 02:58 39.86010 -104.67050 5382 ft 21 kts 284°
2026-05-05 02:58 39.86058 -104.67244 5386 ft 23 kts 283°
2026-05-05 02:58 39.86066 -104.67460 5386 ft 22 kts 270°
2026-05-05 02:58 39.86066 -104.67482 5386 ft 0 kts 270°
2026-05-05 02:59 39.86067 -104.67511 5386 ft 8 kts 270°
2026-05-05 02:59 39.86067 -104.67600 5386 ft 12 kts 270°
2026-05-05 02:59 39.86068 -104.67723 5386 ft 16 kts 270°
2026-05-05 03:00 39.86070 -104.67897 5386 ft 22 kts 271°
2026-05-05 03:00 39.86075 -104.68111 5386 ft 22 kts 272°
2026-05-05 03:00 39.86044 -104.68241 5382 ft 17 kts 240°
2026-05-05 03:00 39.85996 -104.68403 5366 ft 11 kts 201°
2026-05-05 03:01 39.85883 -104.68396 5368 ft 23 kts 179°
2026-05-05 03:01 39.85673 -104.68390 5371 ft 36 kts 178°
2026-05-05 03:01 39.85419 -104.68397 5372 ft 37 kts 184°
2026-05-05 03:01 39.85199 -104.68401 5382 ft 20 kts 181°
2026-05-05 03:02 39.85138 -104.68505 5371 ft 8 kts 291°
2026-05-05 03:02 39.85205 -104.68552 5368 ft 19 kts 311°
2026-05-05 03:02 39.85193 -104.68798 5360 ft 36 kts 265°
2026-05-05 03:02 39.85196 -104.69136 5348 ft 39 kts 273°
2026-05-05 03:03 39.85208 -104.69495 5335 ft 41 kts 272°
2026-05-05 03:03 39.85247 -104.69687 5333 ft 13 kts 340°
2026-05-05 03:03 39.85305 -104.69661 5335 ft 11 kts
2026-05-05 03:03 39.85335 -104.69661 5337 ft 0 kts 359°
2026-05-05 03:04 39.85396 -104.69663 5337 ft 35 kts 359°
2026-05-05 03:04 39.85868 -104.69661 5340 ft 99 kts
2026-05-05 03:04 39.86748 -104.69644 5336 ft 152 kts
2026-05-05 03:04 39.87932 -104.69628 5494 ft 185 kts
2026-05-05 03:05 39.89290 -104.69621 6073 ft 199 kts 355°
2026-05-05 03:05 39.90549 -104.70340 6723 ft 209 kts 317°
2026-05-05 03:05 39.91190 -104.72106 6956 ft 239 kts 275°
2026-05-05 03:05 39.90799 -104.74298 7301 ft 265 kts 242°
2026-05-05 03:06 39.89790 -104.76434 7785 ft 285 kts 238°
2026-05-05 03:06 39.88714 -104.78640 8598 ft 290 kts 238°
2026-05-05 03:06 39.87627 -104.80864 9505 ft 293 kts 238°
2026-05-05 03:06 39.86527 -104.83115 9874 ft 294 kts 238°
2026-05-05 03:07 39.85555 -104.85450 9971 ft 293 kts 246°
2026-05-05 03:07 39.84795 -104.87897 9985 ft 292 kts 250°
2026-05-05 03:07 39.84151 -104.90359 9990 ft 292 kts 254°
2026-05-05 03:07 39.83625 -104.92931 10626 ft 294 kts 257°
2026-05-05 03:08 39.83156 -104.95517 11602 ft 292 kts 257°
2026-05-05 03:08 39.82693 -104.98091 12508 ft 292 kts 257°
2026-05-05 03:08 39.82220 -105.00659 13393 ft 292 kts 257°
2026-05-05 03:08 39.81733 -105.03228 14210 ft 293 kts 257°
2026-05-05 03:09 39.81231 -105.05802 14948 ft 294 kts 257°
2026-05-05 03:09 39.80719 -105.08381 15653 ft 296 kts 256°
2026-05-05 03:09 39.80196 -105.10989 16353 ft 299 kts 256°
2026-05-05 03:09 39.79675 -105.13581 17023 ft 302 kts 256°
2026-05-05 03:10 39.79138 -105.16232 17703 ft 305 kts 256°
2026-05-05 03:10 39.78596 -105.18910 18357 ft 307 kts 256°
2026-05-05 03:10 39.78049 -105.21608 18920 ft 310 kts 256°
2026-05-05 03:10 39.77494 -105.24337 19500 ft 313 kts 256°
2026-05-05 03:11 39.76937 -105.27082 20056 ft 316 kts 256°
2026-05-05 03:11 39.76375 -105.29858 20593 ft 319 kts 256°
2026-05-05 03:11 39.75807 -105.32658 21151 ft 321 kts 256°
2026-05-05 03:11 39.75232 -105.35474 21703 ft 324 kts 256°
2026-05-05 03:12 39.74647 -105.38319 22266 ft 327 kts 256°
2026-05-05 03:12 39.74058 -105.41181 22832 ft 330 kts 256°
2026-05-05 03:12 39.73473 -105.44037 23334 ft 334 kts 256°
2026-05-05 03:12 39.72853 -105.47064 23461 ft 349 kts 256°
2026-05-05 03:13 39.72228 -105.50124 23575 ft 363 kts 256°
2026-05-05 03:13 39.71569 -105.53341 23779 ft 372 kts 256°
2026-05-05 03:13 39.70897 -105.56610 24157 ft 376 kts 256°
2026-05-05 03:13 39.70222 -105.59895 24592 ft 378 kts 256°
2026-05-05 03:14 39.69545 -105.63199 25023 ft 380 kts 256°
2026-05-05 03:14 39.68869 -105.66523 25456 ft 381 kts 257°
2026-05-05 03:14 39.68282 -105.69907 25733 ft 387 kts 259°
2026-05-05 03:14 39.67799 -105.73306 26079 ft 390 kts 261°
2026-05-05 03:15 39.67361 -105.76784 26447 ft 392 kts 262°
2026-05-05 03:15 39.66936 -105.80292 26853 ft 394 kts 262°
2026-05-05 03:15 39.66501 -105.83816 27235 ft 396 kts 261°
2026-05-05 03:15 39.66045 -105.87346 27626 ft 398 kts 261°
2026-05-05 03:16 39.65571 -105.90899 28020 ft 400 kts 261°
2026-05-05 03:16 39.65082 -105.94467 28408 ft 402 kts 261°
2026-05-05 03:16 39.64583 -105.98043 28794 ft 404 kts 261°
2026-05-05 03:16 39.64077 -106.01635 29170 ft 406 kts 261°
2026-05-05 03:17 39.63569 -106.05250 29532 ft 408 kts 260°
2026-05-05 03:17 39.63064 -106.08839 29863 ft 410 kts 260°
2026-05-05 03:17 39.62551 -106.12493 30152 ft 412 kts 261°
2026-05-05 03:17 39.62041 -106.16140 30522 ft 411 kts 261°
2026-05-05 03:18 39.61533 -106.19779 30935 ft 408 kts 261°
2026-05-05 03:18 39.61027 -106.23382 31408 ft 404 kts 261°
2026-05-05 03:18 39.60527 -106.26926 32126 ft 394 kts 261°
2026-05-05 03:18 39.60044 -106.30361 32933 ft 381 kts 261°
2026-05-05 03:19 39.59128 -106.36853 34588 ft 355 kts 261°
2026-05-05 03:19 39.58689 -106.39948 35257 ft 345 kts 261°
2026-05-05 03:19 39.58259 -106.42981 35715 ft 339 kts 260°
2026-05-05 03:20 39.57836 -106.45964 35850 ft 334 kts 260°
2026-05-05 03:20 39.57419 -106.48897 35890 ft 329 kts 260°
2026-05-05 03:20 39.56591 -106.54695 35916 ft 325 kts 260°
2026-05-05 03:21 39.55768 -106.60422 35936 ft 326 kts 260°
2026-05-05 03:21 39.54931 -106.66189 35952 ft 326 kts 258°
2026-05-05 03:22 39.53367 -106.71717 35965 ft 327 kts 251°
2026-05-05 03:22 39.51656 -106.77178 35966 ft 327 kts 251°
2026-05-05 03:23 39.49944 -106.82627 35975 ft 327 kts 251°
2026-05-05 03:23 39.48238 -106.88044 35966 ft 327 kts 251°
2026-05-05 03:24 39.46524 -106.93491 35950 ft 327 kts 251°
2026-05-05 03:24 39.44795 -106.98953 35922 ft 328 kts 251°
2026-05-05 03:25 39.43067 -107.04401 35894 ft 328 kts 251°
2026-05-05 03:25 39.41351 -107.09827 35869 ft 328 kts 251°
2026-05-05 03:26 39.39619 -107.15271 35848 ft 327 kts 250°
2026-05-05 03:26 39.37879 -107.20709 35834 ft 328 kts 250°
2026-05-05 03:27 39.35970 -107.26060 35813 ft 328 kts 248°
2026-05-05 03:27 39.33981 -107.31330 35786 ft 328 kts 248°
2026-05-05 03:28 39.31982 -107.36648 35798 ft 329 kts 248°
2026-05-05 03:28 39.30001 -107.41970 35812 ft 329 kts 248°
2026-05-05 03:29 39.28029 -107.47265 35829 ft 329 kts 248°
2026-05-05 03:29 39.26039 -107.52582 35831 ft 329 kts 248°
2026-05-05 03:30 39.24053 -107.57891 35829 ft 329 kts 248°
2026-05-05 03:30 39.22067 -107.63200 35825 ft 329 kts 248°
2026-05-05 03:31 39.20097 -107.68472 35816 ft 329 kts 248°
2026-05-05 03:31 39.18108 -107.73784 35815 ft 329 kts 247°
2026-05-05 03:32 39.16117 -107.79087 35793 ft 328 kts 247°
2026-05-05 03:32 39.14119 -107.84370 35792 ft 328 kts 247°
2026-05-05 03:33 39.12116 -107.89648 35781 ft 328 kts 247°
2026-05-05 03:33 39.10122 -107.94901 35785 ft 329 kts 247°
2026-05-05 03:34 39.08117 -108.00200 35799 ft 329 kts 247°
2026-05-05 03:34 39.06112 -108.05491 35802 ft 329 kts 246°
2026-05-05 03:35 39.04105 -108.10771 35808 ft 328 kts 246°
2026-05-05 03:35 39.02109 -108.16014 35815 ft 328 kts 246°
2026-05-05 03:36 39.00100 -108.21285 35808 ft 329 kts 246°
2026-05-05 03:36 38.98080 -108.26567 35794 ft 329 kts 246°
2026-05-05 03:37 38.96062 -108.31835 35800 ft 328 kts 246°
2026-05-05 03:37 38.94042 -108.37102 35804 ft 328 kts 246°
2026-05-05 03:38 38.92038 -108.42324 35807 ft 328 kts 246°
2026-05-05 03:38 38.90011 -108.47570 35805 ft 327 kts 246°